Hourly Weather Roundup
Issued by NWS Central Illinois

Home | Current Version | Previous Version | Text Only | Print | Product List | Glossary On
Versions: 1 2 3 4 5 6 7 8 9 10 11 12 13 14 15 16 17 18 19 20 21 22 23 24 25 26 27 28 29 30 31 32 33 34 35 36 37 38 39 40 41 42 43 44 45 46 47 48 49 50
000
NZUS43 KILX 062210
HWRILX

AREA WEATHER ROUNDUP
NATIONAL WEATHER SERVICE, LINCOLN IL
500 PM CDT MON JUL 06 2015


CITY           SKY/WX    TMP DP  RH WIND       PRES   REMARKS
BLOOMINGTON    CLOUDY    84  78  82 S18       29.91F HX  94
CHAMPAIGN      PTSUNNY   85  74  69 S12       29.93F HX  92
DANVILLE       PTSUNNY   83  73  72 S8G16     29.91F HAZE    HX  88
DECATUR        PTSUNNY   86  75  69 S12       29.91F HX  95
EFFINGHAM      PTSUNNY   84  71  63 S8        29.97S HX  88
FLORA          MOSUNNY   84  74  71 SW9       29.97S HX  92
GALESBURG      PTSUNNY   82  74  77 S9        29.84F HX  87
JACKSONVILLE   CLOUDY    88  75  65 S10       29.88F HX  98
LACON          PTSUNNY   86  74  67 S9G16     29.85F HX  94
LAWRENCEVILLE  MOSUNNY   85  74  69 S10       29.97F HX  92
LITCHFIELD     CLOUDY    79  71  75 SW9       29.94S HX  81
$$


CITY           SKY/WX    TMP DP  RH WIND       PRES   REMARKS
LINCOLN        CLOUDY    86  75  69 S10       29.89F HX  95
MACOMB         MOSUNNY   86  75  68 S14       29.86F HX  94
MATTOON        PTSUNNY   84  74  71 S13       29.94F HX  91
MT CARMEL AP   MOSUNNY   88  72  58 S9G16     29.97F HX  94
OLNEY-NOBLE AP MOSUNNY   82  73  74 S9        29.97F HX  88
PARIS          PTSUNNY   84  74  70 S13       29.97S HX  91
PEORIA         PTSUNNY   88  75  65 SW15      29.86F HX  97
PONTIAC        CLOUDY    81  73  78 S8        29.90F THUNDER HX  85
RANTOUL        CLOUDY    86  74  66 S8G17     29.92F HX  93
ROBINSON       MOSUNNY   86  73  65 S10       29.97F HX  93
SPRINGFIELD    CLOUDY    88  76  67 S15       29.89F HX  99
TAYLORVILLE    CLOUDY    79  70  73 S9        29.92F HX  81
$$

...REGIONAL REPORTS...


CITY           SKY/WX    TMP DP  RH WIND       PRES   REMARKS
CHICAGO O`HARE CLOUDY    79  69  71 S8        29.86F HX  81
KANKAKEE       CLOUDY    83  74  73 S9        29.90F HX  90
MOLINE         TSTM      72  69  90 SW6       29.87R FOG
MOUNT STERLING NOT AVBL
MOUNT VERNON   PTSUNNY   86  73  66 S14       29.97F HX  93
PITTSFIELD     PTSUNNY   87  74  64 S9G18     29.88F HX  95
QUINCY         PTSUNNY   87  74  64 S10G21    29.84F HX  95
ROCKFORD       LGT RAIN  78  73  84 S14       29.86F HX  81
$$


CITY           SKY/WX    TMP DP  RH WIND       PRES   REMARKS
BURLINGTON     PTSUNNY   86  76  71 S10       29.82F HX  96
CEDAR RAPIDS   HVY RAIN  78  75  90 NW7       29.84S HX  81
DES MOINES     CLOUDY    75  70  84 W3        29.86F
KIRKSVILLE     LGT RAIN  80  73  79 S10       29.83F HX  84
OTTUMWA        RAIN      72  71  97 W6        29.83R FOG
ST LOUIS       TSTM      79  70  73 SW10      29.93F HX  81
$$


CITY           SKY/WX    TMP DP  RH WIND       PRES   REMARKS
TERRE HAUTE    MOSUNNY   86  72  62 S9        29.97F HX  92
EVANSVILLE     PTSUNNY   85  72  65 SW16      30.00F HX  91
INDIANAPOLIS   MOSUNNY   84  66  54 SW12      29.98F HX  86
LAFAYETTE      PTSUNNY   82  70  66 S9        29.94F HX  86
MADISON        CLOUDY    79  69  71 SW10G18   29.82F HX  81
MILWAUKEE      CLOUDY    81  67  62 SW17G25   29.84S HX  83
$$




USA.gov is the U.S. government's official web portal to all federal, state and local government web resources and services.